Regional Weather Roundup
Issued by NWS Nashville, TN

Home | Current Version | Previous Version | Text Only | Print | Product List | Glossary On
Versions: 1 2 3 4 5 6 7 8 9 10 11 12 13 14 15 16 17 18 19 20 21 22 23 24 25 26
000
ASUS44 KOHX 281210
RWROHX
MIDDLE TENNESSEE HOURLY WEATHER ROUNDUP
NATIONAL WEATHER SERVICE NASHVILLE TN
700 AM CDT FRI JUL 28 2017

NOTE: "FAIR" INDICATES FEW OR NO CLOUDS BELOW 12,000 FEET WITH
NO SIGNIFICANT WEATHER AND/OR OBSTRUCTIONS TO VISIBILITY.

* THESE REPORTS ARE NOT UNDER NWS QUALITY CONTROL AND MAY NOT
  REPORT WEATHER SUCH AS PRECIPITATION AND FOG.


TNZ005>011-023>034-057-059-062>066-078-080-281300
...NORTHERN MIDDLE TENNESSEE...

CITY           SKY/WX    TMP DP  RH WIND       PRES   REMARKS
CLARKSVILLE    CLOUDY    75  73  93 SW3       29.85R
CROSSVILLE     CLOUDY    71  70  96 SW3       29.94S
GALLATIN       CLOUDY    75  73  94 CALM      29.88S FOG
DICKSON        SUNNY     73  73 100 S6        29.87R
LEBANON        CLOUDY    74  73  96 SW7       29.85S
NASHVILLE      CLOUDY    76  73  91 SW6       29.87R
PORTLAND       CLOUDY    75  73  94 SW5       29.86R
SMYRNA         CLOUDY    75  73  93 S3        29.88R
SPARTA         CLOUDY    75  73  94 S5        29.88S FOG
SPRINGFIELD    CLOUDY    75  73  94 SW5       29.84S
WEST NASHVILLE CLOUDY    75  73  94 SW6       29.84R
$$
TNZ056-058-060-061-075>077-079-093>097-281300
...SOUTHERN MIDDLE TENNESSEE...

CITY           SKY/WX    TMP DP  RH WIND       PRES   REMARKS
COLUMBIA       FOG       75  75 100 SW7       29.87R VSB 3/4
FAYETTEVILLE   FOG       73  73 100 S8        29.91R VSB 1/4
MCMINNVILLE    CLOUDY    73  73 100 CALM      29.90S
MURFREESBORO   CLOUDY    74  73  96 S6        29.87S
PULASKI        CLOUDY    73  73 100 SE7       29.89S FOG
SHELBYVILLE    CLOUDY    73  72  94 S7        29.89S
TULLAHOMA      PTSUNNY   72  72 100 W8        29.94R
WINCHESTER     PTSUNNY   75  73  94 CALM      29.91S
$$


...KEY TO REMARKS...
VSB - VISIBILITY IN MILES
WCI - WIND CHILL INDEX
HX  - HEAT INDEX





USA.gov is the U.S. government's official web portal to all federal, state and local government web resources and services.